Content
SEND FEEDBACK

Daily
Averages
Monthly
Summary
United States of America

MERIZO, GUAM


Home > North America > United States > Guam
Elevation: 10 feet     Latitude: 13 14N     Longitude: 144 39E

WEATHER
 
SELECT A DAY
Number of Records: 351,895;   Date Range: 1/1/95 - 10/24/14
 
SHARE

PRINT THIS DATA

[ ← Previous Day ]
WEATHER ALMANAC - FEBRUARY 24, 2013
[ Next Day → ]
[ °C ]   °F
Weather ElementAverageHighLow
Temperature79.3 °F84.2 °F (10:41 am)76.6 °F (2:55 am)
Dewpoint72.2 °F75.2 °F (2:49 pm)69.8 °F (4:10 am)
Humidity78.6 %89 % (11:02 pm)66 % (1:00 pm)
Barometer29.88 in29.93 in (8:55 am)29.81 in (3:50 pm)
Wind Speed17.2 mph23 mph (12:55 pm)
Wind Gust26.5 mph (11:32 pm)
Weather ElementAverage
Visibility9.9 mi
Wind DirectionENE (53.2 °)

Weather ElementTotal
Precipitation---
Cooling Degree Days15.4 (Base 65)
Growing Degree Days30.4 (Base 50)
Averaged from 84 records on February 24, 2013
WEATHER CONDITIONS BREAKOUT
WIND DIRECTION BREAKOUT
WEATHER BY HOUR - FEBRUARY 24, 2013
[ °C ]   °F
Local TimeTemperatureDewpointHumidityBarometerVisibilityWind DirectionWind SpeedGust SpeedPrecipitationEventsConditions
12:37 AM77.0 °F71.6 °F83 %29.90 in10.0 miENE (60°)17.3 mph23.0 mphScattered Clouds
12:55 AM77.0 °F71.2 °F82 %29.89 in10.0 miENE (60°)15.0 mphPartly Cloudy
1:31 AM77.0 °F71.6 °F83 %29.88 in10.0 miENE (60°)15.0 mphMostly Cloudy
1:55 AM77.2 °F72.0 °F84 %29.87 in10.0 miENE (60°)15.0 mphMostly Cloudy
1:56 AM77.0 °F71.6 °F83 %29.87 in10.0 miENE (60°)15.0 mphScattered Clouds
2:30 AM77.0 °F71.6 °F83 %29.86 in10.0 miENE (60°)16.1 mphMostly Cloudy
2:43 AM77.0 °F71.6 °F83 %29.86 in10.0 miENE (60°)18.4 mph24.2 mphScattered Clouds
2:55 AM76.6 °F70.2 °F80 %29.86 in10.0 miENE (60°)17.3 mph21.9 mphScattered Clouds
3:55 AM76.8 °F70.0 °F79 %29.86 in10.0 miENE (60°)17.3 mphScattered Clouds
4:10 AM77.0 °F69.8 °F78 %29.86 in10.0 miENE (60°)16.1 mphMostly Cloudy
4:55 AM77.0 °F70.9 °F81 %29.86 in10.0 miENE (60°)13.8 mphMostly Cloudy
5:07 AM77.0 °F69.8 °F78 %29.86 in10.0 miENE (60°)17.3 mphMostly Cloudy
5:55 AM76.6 °F69.8 °F79 %29.87 in10.0 miENE (60°)13.8 mphScattered Clouds
6:22 AM77.0 °F71.6 °F83 %29.88 in10.0 miENE (60°)12.7 mphMostly Cloudy
6:28 AM77.0 °F71.6 °F83 %29.89 in10.0 miENE (60°)15.0 mphScattered Clouds
6:39 AM77.0 °F69.8 °F78 %29.89 in10.0 miENE (60°)15.0 mphMostly Cloudy
6:45 AM77.0 °F71.6 °F83 %29.90 in10.0 miENE (60°)12.7 mphScattered Clouds
6:55 AM77.0 °F70.9 °F81 %29.90 in10.0 miENE (60°)13.8 mphScattered Clouds
7:09 AM77.0 °F71.6 °F83 %29.90 in10.0 miNE (50°)13.8 mphMostly Cloudy
7:14 AM77.0 °F71.6 °F83 %29.90 in10.0 miNE (50°)15.0 mphScattered Clouds
7:27 AM77.0 °F71.6 °F83 %29.90 in10.0 miNE (50°)13.8 mphMostly Cloudy
7:33 AM77.0 °F71.6 °F83 %29.91 in10.0 miNE (50°)13.8 mphScattered Clouds
7:43 AM78.8 °F71.6 °F78 %29.91 in10.0 miNE (50°)17.3 mphMostly Cloudy
7:51 AM78.8 °F71.6 °F78 %29.91 in10.0 miENE (60°)16.1 mphScattered Clouds
7:55 AM78.4 °F71.8 °F80 %29.91 in10.0 miENE (60°)15.0 mphScattered Clouds
8:09 AM78.8 °F71.6 °F78 %29.92 in10.0 miNE (50°)16.1 mphMostly Cloudy
8:55 AM81.0 °F72.7 °F76 %29.93 in10.0 miNE (50°)18.4 mphMostly Cloudy
9:29 AM80.6 °F73.4 °F79 %29.93 in10.0 miNE (40°)15.0 mphMostly Cloudy
9:34 AM80.6 °F73.4 °F79 %29.93 in10.0 miNE (40°)18.4 mphMostly Cloudy
9:37 AM82.4 °F73.4 °F74 %29.93 in10.0 miNE (50°)16.1 mphMostly Cloudy
9:42 AM82.4 °F73.4 °F74 %29.93 in10.0 miENE (60°)17.3 mphMostly Cloudy
9:47 AM82.4 °F73.4 °F74 %29.93 in10.0 miNE (50°)17.3 mphMostly Cloudy
9:54 AM82.4 °F73.4 °F74 %29.93 in10.0 miNE (50°)16.1 mphMostly Cloudy
9:55 AM82.2 °F73.2 °F74 %29.93 in10.0 miNE (50°)17.3 mphMostly Cloudy
10:41 AM84.2 °F73.4 °F70 %29.91 in10.0 miENE (60°)18.4 mphScattered Clouds
10:55 AM83.3 °F73.2 °F71 %29.91 in10.0 miENE (60°)20.7 mphScattered Clouds
11:24 AM84.2 °F73.4 °F70 %29.90 in10.0 miNE (50°)17.3 mphMostly Cloudy
11:32 AM82.4 °F73.4 °F74 %29.90 in10.0 miENE (60°)19.6 mphScattered Clouds
11:55 AM83.8 °F73.4 °F71 %29.89 in10.0 miENE (70°)18.4 mphClear
12:35 PM82.4 °F73.4 °F74 %29.87 in10.0 miENE (60°)18.4 mphMostly Cloudy
12:55 PM83.5 °F71.8 °F68 %29.86 in10.0 miENE (60°)23.0 mphMostly Cloudy
1:00 PM84.2 °F71.6 °F66 %29.86 in10.0 miNE (50°)21.9 mphScattered Clouds
1:55 PM83.3 °F72.9 °F71 %29.83 in10.0 miENE (60°)19.6 mphScattered Clouds
2:44 PM82.4 °F73.4 °F74 %29.82 in10.0 miENE (60°)19.6 mphRainLight Rain
2:49 PM82.4 °F75.2 °F79 %29.82 in10.0 miNE (40°)16.1 mphRainLight Rain
2:50 PM80.6 °F73.4 °F79 %29.82 in10.0 miNE (40°)16.1 mphRainLight Rain
2:53 PM80.6 °F73.4 °F79 %29.82 in10.0 miNE (50°)18.4 mphScattered Clouds
2:55 PM80.8 °F73.6 °F79 %29.82 in10.0 miNE (50°)17.3 mph0.00 inScattered Clouds
3:01 PM82.4 °F73.4 °F74 %29.82 in10.0 miNE (50°)18.4 mphMostly Cloudy
3:03 PM82.4 °F73.4 °F74 %29.82 in10.0 miNE (50°)18.4 mphScattered Clouds
3:04 PM82.4 °F73.4 °F74 %29.82 in10.0 miNE (50°)17.3 mphMostly Cloudy
3:09 PM82.4 °F71.6 °F70 %29.82 in10.0 miNE (50°)17.3 mphScattered Clouds
3:50 PM82.4 °F73.4 °F74 %29.81 in10.0 miENE (60°)19.6 mph25.3 mphMostly Cloudy
3:55 PM82.4 °F72.7 °F72 %29.82 in10.0 miNE (50°)20.7 mphMostly Cloudy
4:01 PM82.4 °F73.4 °F74 %29.82 in10.0 miNE (50°)18.4 mphScattered Clouds
4:55 PM81.1 °F72.0 °F74 %29.83 in10.0 miNE (50°)18.4 mphScattered Clouds
5:55 PM79.9 °F72.1 °F77 %29.84 in10.0 miNE (50°)17.3 mphScattered Clouds
6:55 PM78.4 °F72.0 °F80 %29.86 in10.0 miNE (50°)15.0 mphMostly Cloudy
7:36 PM78.8 °F71.6 °F78 %29.88 in10.0 miNE (50°)16.1 mphMostly Cloudy
7:39 PM78.8 °F71.6 °F78 %29.88 in10.0 miNE (50°)16.1 mph23.0 mphScattered Clouds
7:55 PM78.3 °F71.1 °F78 %29.88 in10.0 miNE (50°)17.3 mphPartly Cloudy
8:29 PM78.8 °F71.6 °F78 %29.89 in10.0 miENE (60°)15.0 mphMostly Cloudy
8:31 PM78.8 °F71.6 °F78 %29.89 in10.0 miENE (60°)18.4 mphScattered Clouds
8:55 PM77.9 °F71.2 °F80 %29.90 in10.0 miNE (50°)16.1 mphScattered Clouds
9:03 PM78.8 °F71.6 °F78 %29.89 in10.0 miENE (60°)18.4 mphMostly Cloudy
9:07 PM78.8 °F71.6 °F78 %29.90 in10.0 miENE (60°)16.1 mphScattered Clouds
9:09 PM78.8 °F71.6 °F78 %29.90 in10.0 miENE (60°)17.3 mphMostly Cloudy
9:19 PM78.8 °F71.6 °F78 %29.90 in10.0 miNE (50°)17.3 mphScattered Clouds
9:34 PM78.8 °F73.4 °F83 %29.90 in10.0 miNE (50°)17.3 mphMostly Cloudy
9:36 PM78.8 °F73.4 °F83 %29.90 in10.0 miNE (50°)19.6 mphMostly Cloudy
9:44 PM78.8 °F73.4 °F83 %29.90 in10.0 miNE (40°)17.3 mphMostly Cloudy
9:54 PM78.8 °F71.6 °F78 %29.91 in10.0 miNE (50°)20.7 mph25.3 mphScattered Clouds
9:55 PM78.4 °F71.8 °F80 %29.91 in10.0 miNE (50°)21.9 mph25.3 mphScattered Clouds
10:51 PM78.8 °F71.6 °F78 %29.91 in8.0 miNE (50°)20.7 mph25.3 mphRainRain
10:55 PM77.4 °F72.0 °F83 %29.91 in6.0 miNE (40°)18.4 mph0.00 inRainRain
11:02 PM77.0 °F73.4 °F89 %29.91 in8.0 miNE (50°)17.3 mphMostly Cloudy
11:21 PM77.0 °F71.6 °F83 %29.91 in9.0 miNE (40°)17.3 mphRainLight Rain
11:27 PM77.0 °F71.6 °F83 %29.91 in8.0 miNE (50°)15.0 mphRainLight Rain
11:32 PM77.0 °F73.4 °F89 %29.91 in10.0 miNE (40°)17.3 mph26.5 mphMostly Cloudy
11:35 PM77.0 °F73.4 °F89 %29.91 in10.0 miNE (40°)20.7 mph26.5 mphMostly Cloudy
11:49 PM77.0 °F71.6 °F83 %29.91 in10.0 miNE (50°)17.3 mphMostly Cloudy
11:55 PM76.6 °F72.0 °F85 %29.90 in10.0 miNE (50°)17.3 mph0.00 inScattered Clouds
11:56 PM77.0 °F71.6 °F83 %29.90 in10.0 miNE (50°)18.4 mphMostly Cloudy
11:59 PM77.0 °F71.6 °F83 %29.90 in10.0 miNE (50°)17.3 mphScattered Clouds
Hourly data recorded from PGUA, located miles away from Merizo, Guam







STORIES FROM OUR PARTNERS